Volver al catálogo

ARCTURUS

ActivoCienciaGEO
NORAD 56371·PAYLOAD·🇺🇸 United States

Lanzado May 1, 2023 desde Cape Canaveral Space Force Station

Loading…

TLE

ActualizadoSource: Space-Track

Época: Sep 14, 2026, 14:22 UTC

1 56371U 23060B   26257.59884778 -.00000369  00000-0  00000-0 0  9990
2 56371   2.9982  78.7752 0000929 197.1257  53.0232  1.00270455 12352

Sigue ARCTURUS en tiempo real con AllMySat

Download on the App Store